This is the latest recevied weather packets stored in our database for station/object N5VIS. If no packets are shown the sender has not sent any weather packets the latest 10 day(s).
| Time | Temp. | Humidity | Pressure | Rain* | Wind** | Luminosity | Snow |
|---|---|---|---|---|---|---|---|
| 1777803995 | 11.11° C | 88% | 1020.4 hPa | 0 mm | - | - | - |
| 1777803691 | 11.11° C | 87% | 1020.2 hPa | 0 mm | - | - | - |
| 1777803387 | 11.11° C | 87% | 1020.1 hPa | 0 mm | - | - | - |
| 1777803085 | 11.11° C | 87% | 1020.3 hPa | 0 mm | - | - | - |
| 1777802782 | 11.67° C | 86% | 1020.1 hPa | 0 mm | - | - | - |
| 1777802480 | 11.67° C | 85% | 1020.2 hPa | 0 mm | - | - | - |
| 1777802178 | 11.67° C | 83% | 1020.2 hPa | 0 mm | - | - | - |
| 1777801876 | 12.22° C | 83% | 1020.1 hPa | 0 mm | - | - | - |
| 1777801572 | 12.78° C | 82% | 1020.1 hPa | 0 mm | - | - | - |
| 1777801269 | 12.78° C | 81% | 1020.2 hPa | 0 mm | - | - | - |
| 1777800965 | 12.78° C | 79% | 1019.9 hPa | 0 mm | - | - | - |
| 1777800663 | 13.33° C | 77% | 1019.9 hPa | 0 mm | - | - | - |
| 1777800358 | 13.33° C | 75% | 1019.9 hPa | 0 mm | - | - | - |
| 1777800055 | 13.89° C | 74% | 1019.9 hPa | 0 mm | - | - | - |
| 1777799750 | 13.89° C | 74% | 1020 hPa | 0 mm | - | - | - |
| 1777799448 | 13.89° C | 73% | 1019.8 hPa | 0 mm | - | - | - |
| 1777799143 | 14.44° C | 73% | 1019.9 hPa | 0 mm | - | - | - |
| 1777798839 | 14.44° C | 71% | 1020 hPa | 0 mm | - | - | - |
| 1777798535 | 13.89° C | 73% | 1020.1 hPa | 0 mm | - | - | - |
| 1777798233 | 13.89° C | 73% | 1019.8 hPa | 0 mm | - | - | - |
| 1777797929 | 14.44° C | 70% | 1019.6 hPa | 0 mm | - | - | - |
| 1777797627 | 15° C | 69% | 1019.8 hPa | 0 mm | - | - | - |
| 1777797324 | 15° C | 68% | 1019.7 hPa | 0 mm | - | - | - |
| 1777797021 | 15° C | 70% | 1019.7 hPa | 0 mm | - | - | - |
| 1777796718 | 15° C | 69% | 1019.8 hPa | 0 mm | - | - | - |
* Rain latest hour (hover to see other rain measurements)
** Current wind speed in m/s (hover to see current wind gust speed)